Regional Weather Roundup
Issued by NWS

Home | Current Version | Previous Version | Text Only | Print | Product List | Glossary Off
Versions: 1 2 3 4 5 6 7 8 9 10 11 12 13 14 15 16 17 18 19 20 21 22 23 24 25 26 27 28 29 30 31 32 33 34 35 36 37 38 39 40 41 42 43 44 45 46 47 48 49 50

000
ASUS43 KDTX 301710
RWRMI
MICHIGAN HOURLY REGIONAL WEATHER ROUNDUP
NATIONAL WEATHER SERVICE DETROIT/PONTIAC MI
1200 PM EST FRI JAN 30 2015

NOTE: "FAIR" INDICATES FEW OR NO CLOUDS BELOW 12,000 FEET WITH NO
SIGNIFICANT WEATHER AND/OR OBSTRUCTION TO VISIBILITY.

MIZ047>049-052>055-059>063-066>070-074>076-081>083-301800-
SOUTHEAST LOWER MICHIGAN

CITY           SKY/WX    TMP DP  RH WIND       PRES   REMARKS
ADRIAN         PTSUNNY   20   8  60 N16       30.45S WCI   6
ALMA           CLOUDY    18   7  62 N9        30.48S WCI   7
ANN ARBOR      MOSUNNY   18   5  57 N13G21    30.44R WCI   5
BAD AXE        CLOUDY    11   5  77 NW14G24   30.43R WCI  -5
CARO           MOSUNNY   12   1  62 NW12      30.46S WCI  -2
DETROIT        MOSUNNY   20   6  53 NW12      30.45R WCI   9
FLINT          MOSUNNY   16   2  54 NW15      30.46S WCI   1
GROSSE ILE     SUNNY     18   1  49 N17       30.43S WCI   2
HILLSDALE      CLOUDY    20   8  60 N12       30.42R WCI   7
HOWELL         PTSUNNY   16   4  60 N9        30.43F WCI   4

CITY           SKY/WX    TMP DP  RH WIND       PRES   REMARKS
JACKSON        CLOUDY    19   7  59 N14G22    30.44S WCI   6
LAMBERTVILLE   MOSUNNY   21   7  53 NW12G20   30.46R WCI   9
LANSING        CLOUDY    18   7  62 N10G23    30.47S WCI   6
LAPEER         FAIR      12  -1  57 N10       30.44R WCI  -1
MASON          CLOUDY    17   6  63 NW14      30.45S WCI   3
MONROE         MOSUNNY   19   7  58 NW12      30.44R WCI   7
MT. CLEMENS    MOSUNNY   15   2  56 NW16G24   30.40R WCI   0
PONTIAC        MOSUNNY   14   2  58 NW16G22   30.41S WCI  -2
PORT HOPE        N/A     14   8  77 NW16G23   30.40S WCI  -2
PORT HURON     CLOUDY    14   5  67 NW17G24   30.41R WCI  -3
TRI CITIES     SUNNY     17   3  54 N14       30.48R WCI   3
TROY           SUNNY     17  -1  45 NW13G22   30.45S WCI   4
SAGINAW HB     SUNNY     16   5  62 NW12G17   30.47F WCI   3
$$
MIZ043>046-050>051-056>058-064>065-071>073-077>080-301800-
SOUTHWEST LOWER MICHIGAN

CITY           SKY/WX    TMP DP  RH WIND       PRES   REMARKS
BATTLE CREEK   CLOUDY    23   8  52 N9        30.45S WCI  13
BENTON HARBOR  CLOUDY    23  14  68 NE3       30.49S
BIG RAPIDS     CLOUDY    19   9  66 N8        30.44F WCI   8
COLDWATER      CLOUDY    21   8  57 NW9       30.45R WCI  11
FREMONT        CLOUDY    20   8  61 NW10      30.47S WCI   8
HOLLAND        CLOUDY    24   8  50 NW8       30.50R WCI  15
GRAND RAPIDS   PTSUNNY   22   8  55 N6        30.47S WCI  14
IONIA          CLOUDY    20  10  63 N8        30.46S WCI  11
KALAMAZOO      PTSUNNY   22   8  55 N7        30.46F WCI  13
LUDINGTON      CLOUDY    21   8  59 N13       30.50R WCI   8
MARSHALL       CLOUDY    20   7  56 N6        30.45S WCI  13
MOUNT PLEASANT CLOUDY    18   5  58 NW10      30.47S WCI   6
MUSKEGON       FLURRIES  22  10  60 NW9       30.50R WCI  12
SOUTH HAVEN    CLOUDY    24  13  63 NE7       30.50R WCI  16
$$
MIZ016>042-301800-
NORTHERN LOWER MICHIGAN

CITY           SKY/WX    TMP DP  RH WIND       PRES   REMARKS
ALPENA         MIX PCPN   8   1  73 NW10      30.47S WCI  -6
BEAVER ISLAND  LGT SNOW  12   6  79 CALM      30.47F
CADILLAC       CLOUDY    13   6  73 NE3       30.40S
CHARLEVOIX     PTSUNNY   11   4  71 E5        30.50F WCI   3
FRANKFORT      CLOUDY    19  10  69 NW6       30.48F WCI  11
GAYLORD        CLOUDY     9   0  67 N5        30.41S WCI   1
GRAYLING       PTSUNNY   13   2  62 NW16G22   30.43S WCI  -3
HARBOR SPRINGS SUNNY      8  -2  64 CALM      30.48S
HOUGHTON LAKE  MOSUNNY   13   1  59 N10       30.43S WCI   0
MANISTEE       CLOUDY    19   7  58 N7        30.49S WCI  10
OSCODA         SUNNY     10   0  61 N14       30.45S WCI  -5
PELLSTON       MOSUNNY    7  -1  70 CALM      30.48F
ROGERS CITY    CLOUDY     8   4  83 NW10G17   30.49S WCI  -6
TRAVERSE CITY  LGT SNOW  15   7  70 VRB3      30.48R
$$
MIZ007>008-015-301800-
EASTERN UPPER MICHIGAN

CITY           SKY/WX    TMP DP  RH WIND       PRES   REMARKS
KINROSS        SUNNY     12  -2  52 CALM      30.46F
MACKINAC ISLAN MOSUNNY    6  -3  66 CALM      30.47F
NEWBERRY       LGT SNOW   8   4  82 SE5       30.43F WCI  -1
S. S. MARIE    SUNNY      4  -7  60 CALM      30.45F
MUNISING         N/A     17   6  62 NW10      30.46F WCI   5
$$
MIZ004>006-011>014-085-301800-
CENTRAL UPPER MICHIGAN

CITY           SKY/WX    TMP DP  RH WIND       PRES   REMARKS
MANISTIQUE     LGT SNOW  15  10  80 W9        30.46S WCI   3
ESCANABA       CLOUDY    12   1  62 W7        30.50S WCI   2
MENOMINEE      SUNNY     14   1  57 CALM      30.51F
SAWYER-GWINN   MOSUNNY   10   0  61 W7        30.44R WCI   0
$$
MIZ001>003-009>011-084-301800-
WESTERN UPPER MICHIGAN

CITY           SKY/WX    TMP DP  RH WIND       PRES   REMARKS
IRON MOUNTAIN  CLOUDY    13   2  61 VRB3      30.44F
HOUGHTON       LGT SNOW  10   5  80 SE3       30.42F
COPPER HARBOR    N/A     12   3  67 N10       30.47F WCI  -1
IRONWOOD       PTSUNNY   12   5  73 SW6       30.41F WCI   3
$$

ABBREVIATIONS USED IN REMARKS
   TC - TEMPERATURE IN CELSIUS
  WCI - WIND CHILL INDEX
   HX - HEAT INDEX
  VSB - VISIBILITY




USA.gov is the U.S. government's official web portal to all federal, state and local government web resources and services.